Regional Weather Roundup
Issued by NWS Mt. Holly, NJ

Home | Current Version | Previous Version | Text Only | Print | Product List | Glossary On
Versions: 1 2 3 4 5 6 7 8 9 10 11 12 13 14 15 16 17 18 19 20 21 22 23 24 25 26 27 28 29 30 31 32 33 34 35 36 37 38 39 40 41 42 43 44 45 46 47 48 49 50
000
ASUS41 KPHI 280611
RWRPHI

REGIONAL WEATHER ROUNDUP
NATIONAL WEATHER SERVICE MOUNT HOLLY NJ
100 AM EST SAT FEB 28 2015

NOTE:  "FAIR" INDICATES FEW OR NO CLOUDS BELOW 12,000 FEET WITH NO
SIGNIFICANT WEATHER AND/OR OBSTRUCTIONS TO VISIBILITY.

 * = STATION DOES NOT REPORT PRECIPITATION (E.G. RAIN, SNOW, ETC.)
        OR FOG.

NJZ015>026-280700-
SOUTHERN NEW JERSEY

CITY           SKY/WX    TMP DP  RH WIND       PRES   REMARKS
POMONA         CLEAR     18   6  59 NW5       30.64R WCI  11
6HR MIN TEMP:  16; 6HR MAX TEMP:  26;

RIO GRANDE*    CLEAR     25   7  46 N7        30.65R WCI  17
MILLVILLE      CLEAR     21   6  52 NW5       30.64R WCI  15
WRIGHTSTOWN    CLEAR     18   3  52 NW5       30.62R WCI  11
MOUNT HOLLY    CLEAR     16   7  67 CALM      30.66R
TRENTON        CLEAR     16   1  51 N5        30.63R WCI   9
6HR MIN TEMP:  16; 6HR MAX TEMP:  26;


$$
NJZ001>014-280700-
NORTHERN NEW JERSEY

CITY           SKY/WX    TMP DP  RH WIND       PRES   REMARKS
SUSSEX         CLEAR      3  -6  66 CALM      30.64R
ANDOVER*         N/A     11  -4  51 N6        30.63R WCI   1
MORRISTOWN     CLEAR     18  -4  38 NW6       30.65R WCI   9
NEWARK         CLEAR     19   1  45 N7        30.65R WCI  10
TETERBORO      CLEAR     17  -3  41 NW5       30.65R WCI  10
CALDWELL       CLEAR     15  -5  40 NW3       30.66R
SOMERVILLE     CLEAR     10   0  63 CALM      30.65R
ALLAIRE*       CLEAR     18   1  49 NW6       30.62R WCI   9
TOMS RIVER*    CLEAR     12  10  92 NW5       30.64R WCI   4

$$
PAZ043-044-047-054-055-060>062-066>071-280700-
EASTERN PENNSYLVANIA

CITY           SKY/WX    TMP DP  RH WIND       PRES   REMARKS
PHILADELPHIA   CLEAR     22   5  48 NW8       30.67R WCI  12
6HR MIN TEMP:  22; 6HR MAX TEMP:  27;

NORTH PHILA    FAIR      20   2  45 NW6       30.66R WCI  12
BLUE BELL      CLEAR     19   5  53 CALM      30.63R
DOYLESTOWN     CLEAR     15   0  51 N8        30.62R WCI   4
QUAKERTOWN*    CLEAR     14   0  52 N6        30.63R WCI   5
POTTSTOWN      CLEAR     13   2  61 CALM      30.65R
LANCASTER      CLEAR     15   0  51 NW9       30.64R WCI   3
COATESVILLE    CLEAR     18   3  53 NW8       30.61S WCI   7
READING        CLEAR     15  -1  49 CALM      30.65R
6HR MIN TEMP:  14; 6HR MAX TEMP:  22;

ALLENTOWN      CLEAR     12  -4  48 CALM      30.65R
6HR MIN TEMP:   9; 6HR MAX TEMP:  22;

MOUNT POCONO     N/A    N/A N/A N/A MISG      30.49R
HAZLETON       CLEAR     10  -2  56 NW9       30.57R WCI  -2
WILKES BARRE   CLEAR     10  -3  55 N3        30.62R

$$
DEZALL-MDZ008-012-015-019-020-280700-
DELAWARE AND EASTERN MARYLAND

CITY           SKY/WX    TMP DP  RH WIND       PRES   REMARKS
WILMINGTON     CLEAR     20   4  50 NW9       30.66R WCI   9
6HR MIN TEMP:  19; 6HR MAX TEMP:  23;

DOVER          CLEAR     20   7  56 NW12      30.66R WCI   8
GEORGETOWN     PTCLDY    23   7  50 CALM      30.67R
6HR MIN TEMP:  21; 6HR MAX TEMP:  28;

EASTON         CLEAR     24   8  51 N6        30.71R WCI  17
PATUXENT       CLEAR     24   1  36 N14       30.68R WCI  12
OCEAN CITY     CLEAR     17  12  80 NW3       30.67R
WALLOPS ISLAND CLEAR     19  14  81 N3        30.67R
CAMBRIDGE      CLEAR     27  10  50 N6        30.67R WCI  20
SALISBURY      PTCLDY    18  13  80 S3        30.67R

$$
PAZ001-021-NYZ056-072-MDZ011-DCZ001-280700-
OTHER NEARBY LOCATIONS

CITY           SKY/WX    TMP DP  RH WIND       PRES   REMARKS
HARRISBURG     CLEAR     18   0  45 NW8       30.67R WCI   8
STATE COLLEGE  CLEAR      5  -7  57 CALM      30.62S
WILLIAMSPORT   CLEAR     13  -4  46 CALM      30.68R
BINGHAMTON     CLEAR      2  -5  72 W7        30.55R WCI -11
NEW YORK CITY  CLEAR     19  -3  38 MISG      30.66R
BALTIMORE      PTCLDY    19   0  43 NW3       30.68R
WASHINGTON DC  PTCLDY    24   3  40 N9        30.71R WCI  14

$$


USA.gov is the U.S. government's official web portal to all federal, state and local government web resources and services.